User: anonymous   Login
Location: Robert Brownlee Observatory
(34.2308°N, 117.2089°W)
Time: 09:25:52
(UTC-07:00)
Language:

Cosmos 1943 - Orbit

View from above orbital plane
View from above orbital plane
View from above satellite
View from above satellite

Ground track
Ground track

The orbit data is extracted from the following two-line orbital elements,

1 19119U 88039A   16146.59098749 -.00000214  00000-0 -85761-4 0  9998
2 19119  71.0029 195.7176 0013950 284.4722 183.3607 14.15065958447260
Epoch (UTC): 25 May 2016 14:11:01
Eccentricity: 0.0013950
inclination: 71.0029°
perigee height: 832 km
apogee height: 852 km
right ascension of ascending node: 195.7176°
argument of perigee: 284.4722°
revolutions per day: 14.15065958
mean anomaly at epoch: 183.3607°
orbit number at epoch: 44726

The dashed part of the orbit path shows where the satellite is in the earth's shadow,  

DLR